SCP
0 0 0 0 0 -0 0 0 0 0 0 -0 -0 0 0 0 0 0 0 0 0 0 0 0 0 0 0 0 -0 0 0 0 0 0 0 0 0 0 0 0 0 0 0 0
-0 0 0 0 0 -0 0 0 0 0 0 0 0 0 0 0 0 0 0 0 0 0 0 0 0 0 0 0 0 0 0 0 0 0 0 0 0 0 0 0 0 0 0 0
0 -0 0 0 0 0 0 -0 0 0 0 0 0 0 0 0 0 0 0 0 0 0 0 0 0 0 0 0 0 0 0 0 0 0 0 0 0 0 0 0 0 0 0 0
0 -0 0 0 0 0 0 0 0 0 0 0 0 0 0 0 0 0 0 0 0 0 0 0 0 0 0 0 0 0 0 0 0 0 0 0 0 0 0 0 0 0 0 0
0 0 0 -0 -0 0 0 0 0 0 0 0 0 0 0 0 0 0 0 0 0 0 0 0 0 0 0 0 0 0 0 0 0 0 0 0 0 0 0 0 0 0 0 0
-0 0 0 0 -0 -0 -0 0 0 0 0 0 0 0 0 0 0 0 0 0 0 0 0 0 0 0 0 0 0 0 0 0 0 0 0 0 0 0 0 0 0 0 0 0
-0 -0 -0 -0 -0 -0 -0 0 0 -0 -0 -0 -0 0 0 0 0 0 0 0 0 0 0 0 0 0 0 0 0 0 0 0 0 0 0 0 0 0 0 0 0 0 0 0
-0 0 0 0 -0 0 -0 -0 0 0 0 0 -0 -0 0 0 0 0 0 0 0 0 0 0 0 0 0 0 0 0 0 0 0 0 0 0 0 0 0 0 0 0 0 0
0 0 -0 0 0 -0 -0 -0 0 0 -0 -0 -0 -0 -0 0 0 0 0 0 0 0 0 0 0 0 0 0 0 0 0 -0 0 0 0 0 0 0 0 0 0 0 0 0
0 -0 -0 -0 -0 -0 0 -0 -0 -0 -0 -0 -0 -0 0 0 0 0 0 0 0 0 0 0 -0 0 0 0 0 0 0 0 0 0 0 0 0 0 0 0 0 0 0 0
0 0 -0 -0 -0 -0 -0 -0 -0 -0 -0 -0 0 0 0 0 0 0 0 0 0 0 0 0 0 0 0 0 0 0 0 0 0 0 0 0 0 0 0 0 0 0 0 0
0 -0 -0 -0 -0 -0 -0 -0 -0 -0 -0 -0 -0 0 0 0 0 0 0 0 0 0 0 0 0 0 0 0 0 0 0 0 0 0 0 0 0 0 0 0 0 0 0 0
-0 -0 -0 0 0 0 -0 -0 0 -0 0 -0 0 0 0 0 0 0 0 -0 0 -0 -0 0 0 -0 0 -0 0 0 0 0 0 0 0 0 0 0 0 0 0 0 0 0
0 0 0 -0 -0 -0 0 0 0 0 0 0 0 0 0 0 0 0 -0 0 0 0 0 -0 0 -0 -0 0 -0 0 0 0 0 0 0 0 0 0 0 0 0 0 0 0
0 -0 -0 -0 -0 0 -0 0 0 0 0 0 0 0 0 0 0 0 0 -0 0 0 0 0 0 0 0 0 0 -0 0 0 0 0 0 0 0 0 0 0 0 0 0 0
-0 -0 0 0 0 0 0 0 0 0 0 0 0 0 0 0 0 0 -0 -0 -0 0 0 0 -0 0 0 0 0 0 0 -0 0 0 0 0 0 0 0 0 0 0 0 0
0 0 -0 -0 -0 -0 0 0 0 0 0 0 0 -0 0 -0 0 0 0 -0 -0 -0 0 0 -0 -0 -0 0 0 0 0 0 0 0 0 0 0 0 0 0 0 0 0 0
0 0 0 0 0 0 0 0 0 0 0 0 0 0 0 0 0 0 0 0 0 -0 -0 0 0 -0 -0 -0 0 0 0 0 0 0 0 0 0 0 0 0 0 0 0 0
0 0 0 0 0 0 0 0 0 0 0 0 0 0 0 0 0 0 0 0 0 -0 -0 -0 0 0 0 0 0 -0 0 0 0 0 0 0 0 0 0 0 0 0 0 0
0 0 0 0 0 0 0 0 0 0 0 0 0 0 0 0 0 0 0 0 0 0 0 0 0 0 0 0 0 0 0 0 0 0 0 0 0 0 0 0 0 0 0 0
0 0 0 0 0 0 0 0 0 0 0 0 0 0 0 0 0 0 0 0 0 0 0 0 0 0 0 0 0 0 0 0 0 0 0 0 0 0 0 0 0 0 0 0
0 0 0 0 0 0 0 0 0 0 0 0 0 0 0 0 0 0 0 0 0 0 0 0 0 0 0 0 0 0 0 0 0 0 0 0 0 0 0 0 0 0 0 0
0 0 0 0 0 0 0 0 0 0 0 0 0 0 0 0 0 0 0 0 0 0 0 0 0 0 0 0 0 0 0 0 0 0 0 0 0 0 0 0 0 0 0 0
0 0 0 0 0 0 0 0 0 0 0 0 0 0 0 0 0 0 0 0 0 0 0 0 0 0 0 0 0 0 0 0 0 0 0 0 0 0 0 0 0 0 0 0
0 0 0 0 0 0 0 0 0 0 0 0 0 0 0 0 0 0 0 0 0 0 0 0 0 0 0 0 0 0 0 0 0 0 0 0 0 0 0 0 0 0 0 0
0 0 0 0 0 0 0 0 0 0 0 0 0 0 0 0 0 0 0 0 0 0 0 0 0 0 0 0 0 0 0 0 0 0 0 0 0 0 0 0 0 0 0 0
0 0 0 0 0 0 0 0 0 0 0 0 0 0 0 0 0 0 0 0 0 0 0 0 0 0 0 0 0 0 0 0 0 0 0 0 0 0 0 0 0 0 0 0
Wind_Speed_500mb
35 44 43 34 32 23 20 26 29 32 13 22 28 18 20 20 20 27 26 32 32 23 21 24 26 31 34 39 35 40 40 34 30 42 52 55 50 49 50 44 39 38 39 39
33 36 41 43 40 29 30 29 33 36 38 28 30 17 22 28 30 33 36 37 25 19 26 29 30 33 36 41 40 36 44 36 43 41 57 53 49 50 43 41 37 32 34 37
31 32 27 29 35 36 36 32 29 31 33 31 28 25 30 36 39 42 41 20 23 24 25 28 30 31 33 40 42 38 37 43 44 46 54 52 52 52 50 46 38 34 34 31
25 33 30 25 13 25 22 23 32 34 34 30 26 38 47 47 52 42 21 16 19 23 27 28 30 32 40 39 39 38 37 50 40 48 53 49 56 58 56 48 42 39 34 27
9 19 30 34 18 23 26 26 26 28 29 32 43 47 40 26 24 17 18 17 21 27 29 30 32 37 38 39 38 37 33 51 37 43 53 50 62 64 57 52 46 41 37 32
21 10 8 4 7 15 24 23 26 30 30 35 40 15 12 25 23 23 21 19 24 26 25 28 36 36 36 40 39 33 30 43 39 46 55 57 67 64 60 54 50 44 41 35
21 15 12 28 36 28 12 10 29 32 37 34 11 11 10 12 18 20 22 23 25 24 25 31 36 36 33 39 41 35 32 28 35 50 55 72 67 62 64 61 58 52 48 46
9 9 5 53 28 21 27 44 32 33 34 27 23 8 8 16 20 23 24 26 27 27 27 29 35 35 34 36 39 33 25 25 36 42 66 76 73 68 70 68 65 61 58 55
12 13 29 41 23 41 41 26 25 24 23 21 21 21 18 18 20 22 27 29 29 29 29 29 35 37 37 38 35 30 27 18 27 39 73 82 74 75 81 76 74 68 65 63
21 15 31 36 51 50 48 36 29 27 27 27 28 28 23 25 26 27 28 32 33 32 32 35 36 36 34 34 31 24 20 17 14 24 52 74 78 79 82 83 81 76 73 70
7 12 36 24 48 43 38 39 38 31 29 29 24 25 24 23 26 28 30 31 30 31 32 35 37 37 32 29 26 19 14 6 5 11 33 52 71 74 81 80 79 79 77 75
8 26 23 25 43 42 42 43 38 34 32 31 32 30 26 25 25 27 30 33 33 33 33 33 34 36 32 26 21 15 9 12 19 15 26 34 53 55 48 59 73 78 80 76
16 41 37 22 24 38 38 36 30 31 30 31 30 28 27 25 30 30 31 34 36 36 35 34 34 36 34 29 20 14 15 22 32 43 49 49 43 46 66 51 44 41 40 40
27 31 16 30 30 31 31 31 25 26 28 27 27 26 26 25 29 33 36 34 37 37 35 33 34 38 35 29 19 15 20 27 36 44 53 61 67 70 68 72 75 68 56 63
26 16 20 22 24 27 29 30 27 29 29 28 27 27 28 27 30 32 33 29 30 34 37 36 35 36 35 30 23 18 23 31 38 47 52 62 69 73 77 82 89 88 81 75
24 16 23 23 27 30 32 33 31 30 30 28 27 28 26 23 24 26 28 32 34 35 36 35 34 33 29 29 27 26 28 32 38 50 59 64 68 75 82 84 86 86 80 76
23 26 31 31 33 34 32 31 29 28 26 26 26 25 21 16 21 22 27 31 34 34 34 33 34 29 30 29 30 32 30 32 41 50 58 65 69 72 79 82 78 70 63 53
15 16 20 22 27 29 29 28 28 27 26 26 24 22 19 18 18 19 21 25 26 30 34 34 31 30 27 25 27 30 35 38 41 51 55 58 63 66 68 71 67 63 61 55
16 17 19 21 23 24 25 26 28 26 26 24 21 18 17 15 15 17 17 16 22 25 30 29 31 31 31 31 31 32 34 40 48 50 52 54 54 53 54 56 57 55 53 47
15 17 20 23 25 30 30 30 28 25 26 22 16 13 13 12 12 18 26 22 22 21 20 25 28 30 31 32 34 36 39 41 46 48 46 46 47 51 53 51 49 46 42 38
18 21 28 34 35 33 33 31 28 26 25 22 13 12 10 11 9 11 10 11 11 13 15 16 19 23 25 26 29 34 38 41 42 41 41 43 44 44 43 40 39 38 38 36
22 28 32 36 37 32 33 30 27 25 21 19 15 12 17 16 20 18 8 8 6 6 7 9 12 15 19 21 25 26 28 30 33 34 34 33 34 35 34 33 34 35 35 34
17 23 25 33 34 31 28 34 28 27 20 18 12 8 11 11 5 4 4 7 6 5 4 9 12 11 11 15 19 22 24 27 27 28 29 29 30 31 33 33 33 33 32 31
17 21 22 25 30 25 28 28 28 23 21 17 21 9 5 7 12 11 10 8 5 3 5 9 12 12 15 17 19 21 23 24 26 27 28 29 29 30 31 31 30 30 30 28
24 24 23 25 24 23 24 25 23 20 19 15 14 13 9 5 2 4 7 8 10 9 13 14 16 17 19 20 20 21 22 22 23 23 24 26 27 27 27 26 26 25 25 24
17 18 18 22 21 22 21 19 17 17 14 12 12 11 11 10 10 8 7 8 10 13 13 15 16 17 19 20 22 24 25 26 25 25 25 25 25 25 24 24 24 23 22 21
17 19 17 16 18 19 19 16 14 13 12 11 10 9 9 10 9 10 12 11 13 13 15 17 17 20 20 21 22 22 22 24 24 23 23 23 23 23 23 22 21 20 19 18
Wind_Direction_500mb
286 293 292 282 282 256 265 280 281 292 286 200 249 310 323 332 315 309 304 305 297 287 302 324 316 310 317 316 329 341 330 255 260 236 221 212 214 215 216 214 213 214 219 221
285 281 291 283 275 266 258 263 272 286 289 291 278 313 322 317 311 307 303 299 293 318 314 305 307 311 316 314 312 335 348 278 242 248 217 212 209 207 210 200 203 203 197 202
291 299 297 280 270 267 263 258 256 269 275 294 317 313 316 320 313 307 302 318 309 313 307 311 316 318 315 314 310 321 337 314 240 252 216 209 206 205 201 198 196 195 196 196
288 287 270 278 315 312 313 290 286 282 282 292 324 343 321 309 291 288 344 332 320 316 315 318 317 317 315 318 312 304 329 325 244 235 211 205 204 202 199 197 196 194 191 191
267 281 287 303 358 8 337 308 295 306 313 340 354 328 307 18 21 37 26 344 325 320 320 320 320 322 322 320 315 298 314 325 253 235 211 202 200 200 199 194 193 192 191 189
257 270 287 232 315 310 318 279 23 5 347 334 335 299 335 5 10 15 7 351 334 328 323 322 322 326 326 323 321 307 301 316 269 224 202 199 206 202 196 196 193 190 186 182
244 240 258 354 337 322 250 342 11 5 348 326 311 283 356 6 5 15 355 349 345 337 337 324 326 330 331 324 321 319 298 309 277 232 206 211 206 205 198 194 190 187 185 177
324 249 6 1 329 356 341 334 358 343 356 339 42 58 44 15 13 6 351 351 347 346 338 334 334 337 339 330 329 327 320 306 275 270 215 206 204 198 196 192 190 183 179 173
316 13 353 11 3 4 13 25 16 8 351 1 26 29 25 15 11 4 0 354 350 346 340 336 346 346 343 339 337 339 341 323 298 221 196 204 199 198 189 188 188 181 177 172
319 354 342 26 14 18 20 12 16 16 21 25 29 22 14 10 6 5 2 358 352 351 346 345 351 349 350 349 345 344 358 342 268 219 185 179 186 191 190 184 182 181 177 173
279 4 335 2 2 4 9 18 19 20 29 30 28 23 14 9 4 1 359 358 355 352 349 353 349 352 356 359 358 358 17 26 340 197 198 168 170 175 180 180 186 185 180 177
330 349 321 318 344 0 7 9 10 11 13 19 23 18 11 9 6 3 0 359 358 358 356 355 357 357 8 11 14 17 71 118 132 149 167 178 156 156 163 174 181 180 179 178
321 325 319 343 334 358 359 0 4 7 10 11 13 14 10 4 0 359 2 5 5 4 3 3 5 10 16 23 28 49 104 118 126 133 136 141 151 143 127 129 136 140 148 152
341 340 338 351 344 348 355 357 2 9 6 7 9 10 10 8 4 8 9 10 6 11 13 15 20 25 23 27 33 67 94 118 119 119 124 128 131 131 132 130 124 118 130 134
343 340 336 337 345 353 358 359 3 5 3 3 5 9 8 11 11 12 14 21 13 16 20 23 31 31 31 35 45 67 97 108 117 121 124 124 126 126 127 124 121 123 124 128
338 339 350 353 354 357 359 0 2 359 0 359 359 4 1 6 8 16 23 25 27 23 24 27 35 36 45 49 63 82 98 114 124 125 124 124 125 127 124 123 126 128 126 126
357 357 353 353 354 353 354 353 353 352 350 353 352 356 4 18 5 22 28 30 32 35 33 33 35 46 54 66 74 82 99 114 123 126 125 126 126 126 128 126 122 117 117 124
8 356 354 350 347 346 347 349 348 350 350 348 354 2 7 18 26 24 29 30 22 34 40 40 48 52 63 76 90 102 103 105 117 120 128 131 130 131 130 128 130 128 125 127
18 11 5 359 352 349 348 347 347 350 344 352 357 4 7 13 19 24 24 37 39 40 42 47 54 63 68 76 86 97 107 114 117 120 123 124 124 126 127 126 124 123 125 127
11 6 2 357 353 349 346 344 346 345 342 346 10 355 0 10 37 38 20 28 47 52 54 63 61 67 75 85 89 100 107 113 117 119 122 122 123 124 123 123 122 122 123 126
355 354 349 351 350 347 345 344 344 344 345 343 353 354 3 2 29 84 67 19 38 61 60 65 78 81 86 88 96 104 108 113 116 119 120 119 120 121 122 124 129 133 135 135
341 344 345 347 346 347 342 345 346 344 350 349 357 21 37 14 19 12 33 72 41 68 70 85 96 99 97 99 105 112 118 121 120 121 121 122 125 128 129 131 131 133 135 136
332 338 338 339 342 344 349 338 352 344 352 349 347 3 11 9 10 86 25 36 61 74 86 98 108 120 128 118 110 112 118 122 124 127 128 129 130 133 134 135 135 138 139 140
326 331 334 337 356 342 342 340 343 343 348 10 346 353 64 37 10 29 21 35 49 68 109 124 128 116 110 113 116 120 118 118 121 123 125 128 132 135 135 136 139 145 146 149
330 345 343 335 339 334 336 334 345 344 350 349 359 0 358 1 178 7 38 56 77 73 99 113 108 104 100 103 111 112 113 116 120 123 128 132 134 135 136 139 141 145 148 150
329 329 328 334 341 340 338 341 342 345 355 357 4 11 15 33 42 50 63 88 99 114 117 109 100 99 107 114 115 116 116 121 128 132 133 133 135 140 146 147 148 152 155 159
334 336 343 341 338 344 343 351 357 355 0 12 9 18 31 35 53 69 84 88 96 103 112 109 109 107 110 114 118 121 125 127 130 133 136 139 143 146 148 151 154 155 156 157
Wind_Speed_850mb
35 44 43 34 32 23 20 26 29 32 13 22 28 18 20 20 20 27 26 32 32 23 21 24 26 31 34 39 35 40 40 34 30 42 52 55 50 49 50 44 39 38 39 39
33 36 41 43 40 29 30 29 33 36 38 28 30 17 22 28 30 33 36 37 25 19 26 29 30 33 36 41 40 36 44 36 43 41 57 53 49 50 43 41 37 32 34 37
31 32 27 29 35 36 36 32 29 31 33 31 28 25 30 36 39 42 41 20 23 24 25 28 30 31 33 40 42 38 37 43 44 46 54 52 52 52 50 46 38 34 34 31
25 33 30 25 13 25 22 23 32 34 34 30 26 38 47 47 52 42 21 16 19 23 27 28 30 32 40 39 39 38 37 50 40 48 53 49 56 58 56 48 42 39 34 27
9 19 30 34 18 23 26 26 26 28 29 32 43 47 40 26 24 17 18 17 21 27 29 30 32 37 38 39 38 37 33 51 37 43 53 50 62 64 57 52 46 41 37 32
21 10 8 4 7 15 24 23 26 30 30 35 40 15 12 25 23 23 21 19 24 26 25 28 36 36 36 40 39 33 30 43 39 46 55 57 67 64 60 54 50 44 41 35
21 15 12 28 36 28 12 10 29 32 37 34 11 11 10 12 18 20 22 23 25 24 25 31 36 36 33 39 41 35 32 28 35 50 55 72 67 62 64 61 58 52 48 46
9 9 5 53 28 21 27 44 32 33 34 27 23 8 8 16 20 23 24 26 27 27 27 29 35 35 34 36 39 33 25 25 36 42 66 76 73 68 70 68 65 61 58 55
12 13 29 41 23 41 41 26 25 24 23 21 21 21 18 18 20 22 27 29 29 29 29 29 35 37 37 38 35 30 27 18 27 39 73 82 74 75 81 76 74 68 65 63
21 15 31 36 51 50 48 36 29 27 27 27 28 28 23 25 26 27 28 32 33 32 32 35 36 36 34 34 31 24 20 17 14 24 52 74 78 79 82 83 81 76 73 70
7 12 36 24 48 43 38 39 38 31 29 29 24 25 24 23 26 28 30 31 30 31 32 35 37 37 32 29 26 19 14 6 5 11 33 52 71 74 81 80 79 79 77 75
8 26 23 25 43 42 42 43 38 34 32 31 32 30 26 25 25 27 30 33 33 33 33 33 34 36 32 26 21 15 9 12 19 15 26 34 53 55 48 59 73 78 80 76
16 41 37 22 24 38 38 36 30 31 30 31 30 28 27 25 30 30 31 34 36 36 35 34 34 36 34 29 20 14 15 22 32 43 49 49 43 46 66 51 44 41 40 40
27 31 16 30 30 31 31 31 25 26 28 27 27 26 26 25 29 33 36 34 37 37 35 33 34 38 35 29 19 15 20 27 36 44 53 61 67 70 68 72 75 68 56 63
26 16 20 22 24 27 29 30 27 29 29 28 27 27 28 27 30 32 33 29 30 34 37 36 35 36 35 30 23 18 23 31 38 47 52 62 69 73 77 82 89 88 81 75
24 16 23 23 27 30 32 33 31 30 30 28 27 28 26 23 24 26 28 32 34 35 36 35 34 33 29 29 27 26 28 32 38 50 59 64 68 75 82 84 86 86 80 76
23 26 31 31 33 34 32 31 29 28 26 26 26 25 21 16 21 22 27 31 34 34 34 33 34 29 30 29 30 32 30 32 41 50 58 65 69 72 79 82 78 70 63 53
15 16 20 22 27 29 29 28 28 27 26 26 24 22 19 18 18 19 21 25 26 30 34 34 31 30 27 25 27 30 35 38 41 51 55 58 63 66 68 71 67 63 61 55
16 17 19 21 23 24 25 26 28 26 26 24 21 18 17 15 15 17 17 16 22 25 30 29 31 31 31 31 31 32 34 40 48 50 52 54 54 53 54 56 57 55 53 47
15 17 20 23 25 30 30 30 28 25 26 22 16 13 13 12 12 18 26 22 22 21 20 25 28 30 31 32 34 36 39 41 46 48 46 46 47 51 53 51 49 46 42 38
18 21 28 34 35 33 33 31 28 26 25 22 13 12 10 11 9 11 10 11 11 13 15 16 19 23 25 26 29 34 38 41 42 41 41 43 44 44 43 40 39 38 38 36
22 28 32 36 37 32 33 30 27 25 21 19 15 12 17 16 20 18 8 8 6 6 7 9 12 15 19 21 25 26 28 30 33 34 34 33 34 35 34 33 34 35 35 34
17 23 25 33 34 31 28 34 28 27 20 18 12 8 11 11 5 4 4 7 6 5 4 9 12 11 11 15 19 22 24 27 27 28 29 29 30 31 33 33 33 33 32 31
17 21 22 25 30 25 28 28 28 23 21 17 21 9 5 7 12 11 10 8 5 3 5 9 12 12 15 17 19 21 23 24 26 27 28 29 29 30 31 31 30 30 30 28
24 24 23 25 24 23 24 25 23 20 19 15 14 13 9 5 2 4 7 8 10 9 13 14 16 17 19 20 20 21 22 22 23 23 24 26 27 27 27 26 26 25 25 24
17 18 18 22 21 22 21 19 17 17 14 12 12 11 11 10 10 8 7 8 10 13 13 15 16 17 19 20 22 24 25 26 25 25 25 25 25 25 24 24 24 23 22 21
17 19 17 16 18 19 19 16 14 13 12 11 10 9 9 10 9 10 12 11 13 13 15 17 17 20 20 21 22 22 22 24 24 23 23 23 23 23 23 22 21 20 19 18
Wind_Direction_850mb
286 293 292 282 282 256 265 280 281 292 286 200 249 310 323 332 315 309 304 305 297 287 302 324 316 310 317 316 329 341 330 255 260 236 221 212 214 215 216 214 213 214 219 221
285 281 291 283 275 266 258 263 272 286 289 291 278 313 322 317 311 307 303 299 293 318 314 305 307 311 316 314 312 335 348 278 242 248 217 212 209 207 210 200 203 203 197 202
291 299 297 280 270 267 263 258 256 269 275 294 317 313 316 320 313 307 302 318 309 313 307 311 316 318 315 314 310 321 337 314 240 252 216 209 206 205 201 198 196 195 196 196
288 287 270 278 315 312 313 290 286 282 282 292 324 343 321 309 291 288 344 332 320 316 315 318 317 317 315 318 312 304 329 325 244 235 211 205 204 202 199 197 196 194 191 191
267 281 287 303 358 8 337 308 295 306 313 340 354 328 307 18 21 37 26 344 325 320 320 320 320 322 322 320 315 298 314 325 253 235 211 202 200 200 199 194 193 192 191 189
257 270 287 232 315 310 318 279 23 5 347 334 335 299 335 5 10 15 7 351 334 328 323 322 322 326 326 323 321 307 301 316 269 224 202 199 206 202 196 196 193 190 186 182
244 240 258 354 337 322 250 342 11 5 348 326 311 283 356 6 5 15 355 349 345 337 337 324 326 330 331 324 321 319 298 309 277 232 206 211 206 205 198 194 190 187 185 177
324 249 6 1 329 356 341 334 358 343 356 339 42 58 44 15 13 6 351 351 347 346 338 334 334 337 339 330 329 327 320 306 275 270 215 206 204 198 196 192 190 183 179 173
316 13 353 11 3 4 13 25 16 8 351 1 26 29 25 15 11 4 0 354 350 346 340 336 346 346 343 339 337 339 341 323 298 221 196 204 199 198 189 188 188 181 177 172
319 354 342 26 14 18 20 12 16 16 21 25 29 22 14 10 6 5 2 358 352 351 346 345 351 349 350 349 345 344 358 342 268 219 185 179 186 191 190 184 182 181 177 173
279 4 335 2 2 4 9 18 19 20 29 30 28 23 14 9 4 1 359 358 355 352 349 353 349 352 356 359 358 358 17 26 340 197 198 168 170 175 180 180 186 185 180 177
330 349 321 318 344 0 7 9 10 11 13 19 23 18 11 9 6 3 0 359 358 358 356 355 357 357 8 11 14 17 71 118 132 149 167 178 156 156 163 174 181 180 179 178
321 325 319 343 334 358 359 0 4 7 10 11 13 14 10 4 0 359 2 5 5 4 3 3 5 10 16 23 28 49 104 118 126 133 136 141 151 143 127 129 136 140 148 152
341 340 338 351 344 348 355 357 2 9 6 7 9 10 10 8 4 8 9 10 6 11 13 15 20 25 23 27 33 67 94 118 119 119 124 128 131 131 132 130 124 118 130 134
343 340 336 337 345 353 358 359 3 5 3 3 5 9 8 11 11 12 14 21 13 16 20 23 31 31 31 35 45 67 97 108 117 121 124 124 126 126 127 124 121 123 124 128
338 339 350 353 354 357 359 0 2 359 0 359 359 4 1 6 8 16 23 25 27 23 24 27 35 36 45 49 63 82 98 114 124 125 124 124 125 127 124 123 126 128 126 126
357 357 353 353 354 353 354 353 353 352 350 353 352 356 4 18 5 22 28 30 32 35 33 33 35 46 54 66 74 82 99 114 123 126 125 126 126 126 128 126 122 117 117 124
8 356 354 350 347 346 347 349 348 350 350 348 354 2 7 18 26 24 29 30 22 34 40 40 48 52 63 76 90 102 103 105 117 120 128 131 130 131 130 128 130 128 125 127
18 11 5 359 352 349 348 347 347 350 344 352 357 4 7 13 19 24 24 37 39 40 42 47 54 63 68 76 86 97 107 114 117 120 123 124 124 126 127 126 124 123 125 127
11 6 2 357 353 349 346 344 346 345 342 346 10 355 0 10 37 38 20 28 47 52 54 63 61 67 75 85 89 100 107 113 117 119 122 122 123 124 123 123 122 122 123 126
355 354 349 351 350 347 345 344 344 344 345 343 353 354 3 2 29 84 67 19 38 61 60 65 78 81 86 88 96 104 108 113 116 119 120 119 120 121 122 124 129 133 135 135
341 344 345 347 346 347 342 345 346 344 350 349 357 21 37 14 19 12 33 72 41 68 70 85 96 99 97 99 105 112 118 121 120 121 121 122 125 128 129 131 131 133 135 136
332 338 338 339 342 344 349 338 352 344 352 349 347 3 11 9 10 86 25 36 61 74 86 98 108 120 128 118 110 112 118 122 124 127 128 129 130 133 134 135 135 138 139 140
326 331 334 337 356 342 342 340 343 343 348 10 346 353 64 37 10 29 21 35 49 68 109 124 128 116 110 113 116 120 118 118 121 123 125 128 132 135 135 136 139 145 146 149
330 345 343 335 339 334 336 334 345 344 350 349 359 0 358 1 178 7 38 56 77 73 99 113 108 104 100 103 111 112 113 116 120 123 128 132 134 135 136 139 141 145 148 150
329 329 328 334 341 340 338 341 342 345 355 357 4 11 15 33 42 50 63 88 99 114 117 109 100 99 107 114 115 116 116 121 128 132 133 133 135 140 146 147 148 152 155 159
334 336 343 341 338 344 343 351 357 355 0 12 9 18 31 35 53 69 84 88 96 103 112 109 109 107 110 114 118 121 125 127 130 133 136 139 143 146 148 151 154 155 156 157